Location: Oberstdorf
(47.4188°N, 10.2969°E)
Time: 03:15:57
(UTC+02:00)

ISS - Visible Passes

Search period start: 25 May 2017 00:00
Search period end: 04 June 2017 00:00
Orbit: 402 x 409 km, 51.6° (Epoch: 25 May)

Date Brightness Start Highest point End Pass type
(mag) Time Alt. Az. Time Alt. Az. Time Alt. Az.
25 May -2.3 01:06:13 10° WNW 01:09:20 38° N 01:12:26 10° ENE visible
25 May -3.1 02:42:57 10° WNW 02:46:12 55° NNE 02:49:26 10° E visible
25 May -3.2 04:19:35 10° WNW 04:22:37 35° SW 04:25:38 10° SSE visible
25 May -3.9 22:37:15 10° SW 22:40:32 69° SSE 22:43:48 10° ENE visible
26 May -2.5 00:14:01 10° W 00:17:11 41° N 00:20:20 10° ENE visible
26 May -2.6 01:50:54 10° WNW 01:54:05 44° N 01:57:15 10° E visible
26 May -3.9 03:27:26 10° WNW 03:30:41 58° SSW 03:33:54 10° SE visible
26 May -3.4 21:45:25 10° SW 21:48:33 42° SSE 21:51:42 10° ENE visible
26 May -2.9 23:21:49 10° W 23:25:02 50° NNW 23:28:16 10° ENE visible
27 May -2.4 00:58:48 10° WNW 01:01:56 38° N 01:05:03 10° ENE visible
27 May -3.9 02:35:22 10° WNW 02:38:40 89° NNE 02:41:57 10° ESE visible
27 May -2.3 04:12:31 10° W 04:14:48 17° SW 04:17:03 10° S visible
27 May -3.5 22:29:38 10° WSW 22:32:55 68° NNW 22:36:13 10° ENE visible
28 May -2.3 00:06:38 10° WNW 00:09:44 37° N 00:12:51 10° ENE visible
28 May -3.4 01:43:18 10° WNW 01:46:36 62° NNE 01:47:25 43° E visible
28 May -3.9 21:37:32 10° WSW 21:40:51 82° SSE 21:44:09 10° ENE visible
28 May -2.4 23:14:24 10° WNW 23:17:33 39° N 23:20:41 10° ENE visible
29 May -2.8 00:51:14 10° WNW 00:54:27 47° NNE 00:56:00 25° ENE visible
29 May -1.6 02:27:48 10° WNW 02:28:36 16° WNW 02:28:36 16° WNW visible
29 May -2.7 22:22:09 10° W 22:25:21 46° NNW 22:28:34 10° ENE visible
29 May -2.5 23:59:07 10° WNW 00:02:15 40° N 00:05:06 12° ENE visible
30 May -2.7 01:35:39 10° WNW 01:37:42 35° WNW 01:37:42 35° WNW visible
30 May -2.3 23:06:55 10° WNW 23:10:03 37° N 23:13:09 10° ENE visible
31 May -3.7 00:43:33 10° WNW 00:46:51 71° NNE 00:47:00 69° NE visible
31 May -2.3 22:14:40 10° WNW 22:17:48 38° N 22:20:56 10° ENE visible
31 May -3.1 23:51:27 10° WNW 23:54:41 52° NNE 23:56:24 24° E visible
01 Jun -1.6 01:28:02 10° WNW 01:29:01 17° W 01:29:01 17° W visible
01 Jun -2.6 22:59:18 10° WNW 23:02:28 42° N 23:05:38 10° E visible
02 Jun -3.3 00:35:50 10° WNW 00:38:28 50° W 00:38:28 50° W visible
02 Jun -2.4 22:07:06 10° WNW 22:10:13 38° N 22:13:21 10° ENE visible
02 Jun -3.8 23:43:40 10° WNW 23:46:59 81° NNE 23:47:56 43° ESE visible
03 Jun -3.3 22:51:32 10° WNW 22:54:48 58° NNE 22:57:28 14° E visible
